Regional Weather Roundup
Issued by NWS

Home | Current Version | Previous Version | Graphics & Text | Print | Product List | Glossary On
Versions: 1 2 3 4 5 6 7 8 9 10 11 12 13 14 15 16 17 18 19 20 21 22 23 24 25 26 27 28 29 30 31 32 33 34 35 36 37 38 39 40 41 42 43 44 45 46 47 48 49 50
000
ASUS43 KTOP 231759
RWRKS

WEATHER ROUNDUP FOR KANSAS
NATIONAL WEATHER SERVICE GOODLAND KS
100 PM CDT SUN APR 23 2017

NOTE:  "FAIR" INDICATES FEW OR NO CLOUDS BELOW 12,000 FEET WITH NO
SIGNIFICANT WEATHER AND/OR OBSTRUCTIONS TO VISIBILITY.

KSZ001>006-013>018-027>032-041>047-231900-
NORTHWEST KANSAS

CITY           SKY/WX    TMP DP  RH WIND       PRES   REMARKS
GOODLAND       CLOUDY    61  39  44 S26G36    29.99F
6HR MIN TEMP:  38; 6HR MAX TEMP:  61;

HAYS           SUNNY     64  35  34 SW17      30.12F
HILL CITY      SUNNY     66  31  27 S21G28    30.08F
6HR MIN TEMP:  32; 6HR MAX TEMP:  66;

RUSSELL        SUNNY     65  33  30 S16G24    30.12F
6HR MIN TEMP:  34; 6HR MAX TEMP:  65;

$$

KSZ061>065-074>080-084>089-231900-
SOUTHWEST KANSAS

CITY           SKY/WX    TMP DP  RH WIND       PRES   REMARKS
DODGE CITY     SUNNY     62  32  32 S17       30.14F
6HR MIN TEMP:  35; 6HR MAX TEMP:  63;

GARDEN CITY    SUNNY     63  34  33 S18G25    30.10F
6HR MIN TEMP:  30; 6HR MAX TEMP:  63;

GREAT BEND     SUNNY     62  38  40 S15       30.14F
$$

KSZ066>073-081>083-090>101-231900-
SOUTHEAST KANSAS

CITY           SKY/WX    TMP DP  RH WIND       PRES   REMARKS
CHANUTE        SUNNY     64  36  35 N6        30.16F
6HR MIN TEMP:  39; 6HR MAX TEMP:  65;

COFFEYVILLE    SUNNY     65  37  35 VRB5      30.15F
6HR MIN TEMP:  40; 6HR MAX TEMP:  65;

HUTCHINSON     SUNNY     64  33  31 VRB7      30.15F
6HR MIN TEMP:  34; 6HR MAX TEMP:  64;

MEDICINE LODGE   N/A     63  33  32 VRB6      30.15F
PARSONS        SUNNY     64  37  36 VRB3      30.16F
6HR MIN TEMP:  37; 6HR MAX TEMP:  65;

WICHITA INTL   MOSUNNY   63  32  31 CALM      30.16F
6HR MIN TEMP:  38; 6HR MAX TEMP:  65;

WICHITA JABRA  SUNNY     63  32  31 CALM      30.16F
6HR MIN TEMP:  39; 6HR MAX TEMP:  64;

WINFIELD       SUNNY     63  38  39 VRB5      30.18F
6HR MIN TEMP:  39; 6HR MAX TEMP:  64;

$$

KSZ007>012-019>026-033>040-048>060-102>105-231900-
NORTHEAST KANSAS

CITY           SKY/WX    TMP DP  RH WIND       PRES   REMARKS
CONCORDIA      SUNNY     63  38  39 S10       30.13F
6HR MIN TEMP:  37; 6HR MAX TEMP:  63;

EMPORIA        SUNNY     63  36  36 E6        30.15F
6HR MIN TEMP:  39; 6HR MAX TEMP:  63;

LAWRENCE       SUNNY     66  31  27 SE6       30.14F
6HR MIN TEMP:  34; 6HR MAX TEMP:  67;

MANHATTAN      SUNNY     66  31  27 VRB5      30.14F
6HR MIN TEMP:  33; 6HR MAX TEMP:  66;

OLATHE IND     SUNNY     64  33  31 NW6       30.15F
6HR MIN TEMP:  39; 6HR MAX TEMP:  65;

OLATHE EXE     SUNNY     63  29  27 CALM      30.14F
6HR MIN TEMP:  41; 6HR MAX TEMP:  63;

SALINA         SUNNY     66  34  30 VRB3      30.15F
6HR MIN TEMP:  36; 6HR MAX TEMP:  66;

TOPEKA BILLARD SUNNY     65  36  34 SW7       30.14F
6HR MIN TEMP:  37; 6HR MAX TEMP:  66;

TOPEKA FORBES  SUNNY     66  35  31 W6        30.15F
6HR MIN TEMP:  35; 6HR MAX TEMP:  67;

$$




USA.gov is the U.S. government's official web portal to all federal, state and local government web resources and services.